Terminal Aerodrome Forecast
Issued by NWS New Orleans/Baton Rouge, LA

Home | Current Version | Previous Version | Text Only | Print | Product List | Glossary On
Versions: 1 2 3 4 5 6 7 8 9 10 11 12 13 14 15 16 17 18
000
FTUS44 KLIX 170500
TAFBTR
TAF
KBTR 170521Z 1706/1806 10006KT P6SM SKC
     FM170900 05004KT P6SM SCT050
     FM171200 04004KT P6SM BKN025
     FM171900 09008KT P6SM BKN025 PROB30 1803/1806 -RA=

USA.gov is the U.S. government's official web portal to all federal, state and local government web resources and services.